Weather History for Campo, CA

Change the Weather History Date:

Saturday, December 29, 2012

  Actual Average Record
Temperature  
Mean Temperature 38 °F 48 °F  
Max Temperature 50 °F 62 °F 82 °F (1998)
Min Temperature 25 °F 33 °F 16 °F (1954)
Degree Days  
Heating Degree Days 27 17  
Month to date heating degree days 518 505  
Since 1 July heating degree days 947 1075  
Cooling Degree Days 0 0  
Month to date cooling degree days 0 0  
Year to date cooling degree days 942 841  
Moisture  
Dew Point 31 °F    
Average Humidity 73    
Maximum Humidity 88    
Minimum Humidity 58    
Precipitation  
Precipitation 0.00 in 0.09 in 1.08 in (2004)
Month to date precipitation 1.71 2.09  
Year to date precipitation 9.95 15.55  
Since 1 July precipitation 3.90 5.40  
Snow  
Snow 0.00 in - - ()
Month to date snowfall 0.0  
Year to date snowfall 0.0  
Since 1 July snowfall 0.0  
Snow Depth 0.00 in    
Sea Level Pressure  
Sea Level Pressure 29.97 in    
Wind  
Wind Speed 4 mph (WSW)    
Max Wind Speed 13 mph    
Max Gust Speed 15 mph    
T = Trace of Precipitation, MM = Missing Value Source: NWS Daily Summary

Daily Weather History Graph

Daily Weather History Graph

Search for Another Location

Airport:

Trip Planner

Search our weather history database for the weather conditions in past years. The results will help you decide how hot, cold, wet, or windy it might be!

Date:

Astronomy

Dec. 29, 2012 Rise Set
Actual Time 6:47 AM PST 4:49 PM PST
Civil Twilight 6:20 AM PST 5:16 PM PST
Nautical Twilight 5:49 AM PST 5:47 PM PST
Astronomical Twilight 5:19 AM PST 6:17 PM PST
Moon 6:20 PM PST (12/29) 7:28 AM PST (12/29)
Length of Visible Light 10h 56m
Length of Day
10h 01m
Full, 98% of the Moon is Illuminated
Dec 29
Full
Jan 4
Last Quarter
Jan 11
New
Jan 18
First Quarter
Jan 26
Full

Hourly Weather History & Observations

Time (PST) Temp. Windchill Dew Point Humidity Pressure Visibility Wind Dir Wind Speed Gust Speed Precip Events Conditions
12:52 AM 30.0 °F - 21.9 °F 72% 30.02 in - Calm Calm - N/A   Unknown
1:52 AM 28.0 °F 22.8 °F 21.9 °F 78% 30.03 in - NNE 4.6 mph - N/A   Unknown
2:52 AM 30.0 °F 26.5 °F 21.9 °F 72% 30.02 in - NE 3.5 mph - N/A   Unknown
3:52 AM 25.0 °F 20.7 °F 19.9 °F 81% 30.02 in - ENE 3.5 mph - N/A   Unknown
4:52 AM 26.1 °F 21.9 °F 21.0 °F 81% 30.02 in - East 3.5 mph - N/A   Unknown
5:52 AM 25.0 °F 20.7 °F 21.0 °F 85% 30.04 in - NE 3.5 mph - N/A   Unknown
6:52 AM 30.0 °F 26.5 °F 24.1 °F 79% 30.05 in - NE 3.5 mph - N/A   Unknown
7:52 AM 33.1 °F 28.7 °F 26.1 °F 75% 30.05 in - NE 4.6 mph - N/A   Unknown
8:52 AM 37.0 °F 34.5 °F 28.0 °F 70% 30.04 in - NNE 3.5 mph - N/A   Unknown
9:52 AM 44.1 °F - 32.0 °F 63% 30.01 in - Calm Calm - N/A   Unknown
10:52 AM 46.0 °F - 32.0 °F 58% 29.99 in - Calm Calm - N/A   Unknown
11:52 AM 46.9 °F - 35.1 °F 63% 29.96 in - WSW 8.1 mph - N/A   Unknown
12:52 PM 48.9 °F - 35.1 °F 59% 29.94 in - SW 9.2 mph - N/A   Unknown
1:52 PM 48.9 °F - 35.1 °F 59% 29.93 in - SW 11.5 mph - N/A   Unknown
2:52 PM 48.9 °F - 35.1 °F 59% 29.91 in - SW 6.9 mph - N/A   Unknown
3:52 PM 48.9 °F - 35.1 °F 59% 29.91 in - WSW 8.1 mph - N/A   Unknown
4:52 PM 46.9 °F - 37.0 °F 68% 29.91 in - WSW 9.2 mph - N/A   Unknown
5:52 PM 45.0 °F 42.6 °F 37.9 °F 76% 29.93 in - SW 4.6 mph - N/A   Unknown
6:52 PM 44.1 °F 41.5 °F 39.0 °F 82% 29.92 in - WSW 4.6 mph - N/A   Unknown
7:52 PM 43.0 °F 41.3 °F 39.9 °F 89% 29.93 in - South 3.5 mph - 0.01 in   Unknown
8:52 PM 43.0 °F 41.3 °F 39.9 °F 89% 29.93 in - WSW 3.5 mph - 0.04 in   Unknown
9:52 PM 43.0 °F 38.2 °F 39.9 °F 89% 29.93 in - SW 8.1 mph - 0.03 in   Unknown
10:52 PM 41.0 °F - 39.0 °F 93% 29.92 in - Calm Calm - N/A   Unknown
11:52 PM 41.0 °F - 37.9 °F 89% 29.91 in - Calm Calm - N/A   Unknown